RADUGA 30 [-]

Last updated on Tue Jun 27 2023 00:03:02 GMT+0000 (Coordinated Universal Time)

1 22836U 93062A 23177.04872456 -.00000070 00000+0 00000+0 0 9993 2 22836 14.5046 355.3078 0001209 85.3348 282.0978 1.00283420108877

Satellite not in orbit

RADUGA 30 [-]